Year,Month,Day,Hour,Minute,Value (Times are PST for windspeed in km/hr)
2012,11,19,00,00,3.90
2012,11,19,00,01,3.80
2012,11,19,00,02,3.60
2012,11,19,00,03,3.00
2012,11,19,00,04,3.30
2012,11,19,00,05,1.80
2012,11,19,00,06,2.90
2012,11,19,00,07,3.50
2012,11,19,00,08,2.00
2012,11,19,00,09,0.00
2012,11,19,00,10,0.00
2012,11,19,00,11,0.00
2012,11,19,00,12,0.00
2012,11,19,00,13,0.30
2012,11,19,00,14,5.60
2012,11,19,00,15,6.00
2012,11,19,00,16,6.30
2012,11,19,00,17,6.30
2012,11,19,00,18,6.80
2012,11,19,00,19,4.70
2012,11,19,00,20,0.70
2012,11,19,00,21,1.50
2012,11,19,00,22,2.90
2012,11,19,00,23,1.20
2012,11,19,00,24,0.00
2012,11,19,00,25,3.10
2012,11,19,00,26,1.40
2012,11,19,00,27,4.30
2012,11,19,00,28,5.00
2012,11,19,00,29,8.00
2012,11,19,00,30,5.40
2012,11,19,00,31,3.90
2012,11,19,00,32,3.10
2012,11,19,00,33,2.50
2012,11,19,00,34,5.40
2012,11,19,00,35,14.40
2012,11,19,00,36,5.20
2012,11,19,00,37,3.00
2012,11,19,00,38,4.50
2012,11,19,00,39,3.60
2012,11,19,00,40,4.20
2012,11,19,00,41,7.00
2012,11,19,00,42,5.70
2012,11,19,00,43,5.20
2012,11,19,00,44,5.50
2012,11,19,00,45,4.90
2012,11,19,00,46,4.20
2012,11,19,00,47,4.60
2012,11,19,00,48,8.10
2012,11,19,00,49,5.90
2012,11,19,00,50,10.50
2012,11,19,00,51,13.50
2012,11,19,00,52,13.40
2012,11,19,00,53,8.00
2012,11,19,00,54,7.60
2012,11,19,00,55,6.40
2012,11,19,00,56,8.20
2012,11,19,00,57,10.10
2012,11,19,00,58,7.90
2012,11,19,00,59,10.50
2012,11,19,01,00,12.10
2012,11,19,01,01,9.20
2012,11,19,01,02,11.10
2012,11,19,01,03,8.80
2012,11,19,01,04,7.90
2012,11,19,01,05,8.70
2012,11,19,01,06,14.60
2012,11,19,01,07,10.90
2012,11,19,01,08,7.60
2012,11,19,01,09,10.90
2012,11,19,01,10,12.50
2012,11,19,01,11,9.90
2012,11,19,01,12,7.10
2012,11,19,01,13,9.20
2012,11,19,01,14,8.40
2012,11,19,01,15,6.60
2012,11,19,01,16,6.70
2012,11,19,01,17,7.40
2012,11,19,01,18,8.50
2012,11,19,01,19,7.30
2012,11,19,01,20,7.10
2012,11,19,01,21,5.70
2012,11,19,01,22,7.00
2012,11,19,01,23,4.60
2012,11,19,01,24,7.00
2012,11,19,01,25,4.60
2012,11,19,01,26,4.60
2012,11,19,01,27,3.20
2012,11,19,01,28,7.40
2012,11,19,01,29,4.10
2012,11,19,01,30,3.90
2012,11,19,01,31,3.60
2012,11,19,01,32,2.50
2012,11,19,01,33,2.10
2012,11,19,01,34,1.40
2012,11,19,01,35,2.70
2012,11,19,01,36,1.50
2012,11,19,01,37,2.20
2012,11,19,01,38,2.10
2012,11,19,01,39,1.90
2012,11,19,01,40,1.40
2012,11,19,01,41,3.70
2012,11,19,01,42,4.90
2012,11,19,01,43,4.10
2012,11,19,01,44,3.90
2012,11,19,01,45,2.30
2012,11,19,01,46,0.20
2012,11,19,01,47,4.90
2012,11,19,01,48,6.20
2012,11,19,01,49,5.80
2012,11,19,01,50,3.10
2012,11,19,01,51,2.70
2012,11,19,01,52,4.50
2012,11,19,01,53,3.90
2012,11,19,01,54,3.10
2012,11,19,01,55,2.70
2012,11,19,01,56,3.10
2012,11,19,01,57,7.30
2012,11,19,01,58,5.30
2012,11,19,01,59,4.60
2012,11,19,02,00,6.00
2012,11,19,02,01,5.30
2012,11,19,02,02,2.00
2012,11,19,02,03,0.40
2012,11,19,02,04,2.90
2012,11,19,02,05,3.10
2012,11,19,02,06,7.10
2012,11,19,02,07,4.60
2012,11,19,02,08,6.80
2012,11,19,02,09,4.10
2012,11,19,02,10,5.30
2012,11,19,02,11,3.50
2012,11,19,02,12,2.70
2012,11,19,02,13,6.30
2012,11,19,02,14,3.80
2012,11,19,02,15,6.00
2012,11,19,02,16,6.40
2012,11,19,02,17,6.60
2012,11,19,02,18,5.40
2012,11,19,02,19,7.00
2012,11,19,02,20,3.10
2012,11,19,02,21,6.30
2012,11,19,02,22,5.50
2012,11,19,02,23,6.80
2012,11,19,02,24,8.50
2012,11,19,02,25,6.90
2012,11,19,02,26,7.20
2012,11,19,02,27,11.30
2012,11,19,02,28,11.80
2012,11,19,02,29,10.90
2012,11,19,02,30,11.80
2012,11,19,02,31,8.90
2012,11,19,02,32,19.40
2012,11,19,02,33,11.30
2012,11,19,02,34,8.00
2012,11,19,02,35,8.90
2012,11,19,02,36,16.00
2012,11,19,02,37,15.70
2012,11,19,02,38,15.20
2012,11,19,02,39,17.00
2012,11,19,02,40,15.30
2012,11,19,02,41,13.70
2012,11,19,02,42,10.80
2012,11,19,02,43,20.30
2012,11,19,02,44,15.40
2012,11,19,02,45,15.40
2012,11,19,02,46,13.30
2012,11,19,02,47,9.90
2012,11,19,02,48,10.40
2012,11,19,02,49,19.50
2012,11,19,02,50,16.00
2012,11,19,02,51,10.10
2012,11,19,02,52,20.90
2012,11,19,02,53,18.10
2012,11,19,02,54,16.90
2012,11,19,02,55,12.50
2012,11,19,02,56,12.20
2012,11,19,02,57,13.80
2012,11,19,02,58,19.20
2012,11,19,02,59,11.30
2012,11,19,03,00,10.10
2012,11,19,03,01,13.80
2012,11,19,03,02,16.50
2012,11,19,03,03,17.50
2012,11,19,03,04,16.80
2012,11,19,03,05,13.80
2012,11,19,03,06,10.40
2012,11,19,03,07,10.90
2012,11,19,03,08,16.00
2012,11,19,03,09,16.70
2012,11,19,03,10,15.30
2012,11,19,03,11,17.30
2012,11,19,03,12,16.30
2012,11,19,03,13,11.00
2012,11,19,03,14,10.10
2012,11,19,03,15,14.70
2012,11,19,03,16,9.70
2012,11,19,03,17,12.10
2012,11,19,03,18,13.80
2012,11,19,03,19,15.50
2012,11,19,03,20,18.90
2012,11,19,03,21,17.00
2012,11,19,03,22,15.80
2012,11,19,03,23,9.10
2012,11,19,03,24,8.40
2012,11,19,03,25,5.50
2012,11,19,03,26,7.20
2012,11,19,03,27,7.80
2012,11,19,03,28,5.10
2012,11,19,03,29,12.40
2012,11,19,03,30,8.50
2012,11,19,03,31,8.10
2012,11,19,03,32,6.00
2012,11,19,03,33,7.80
2012,11,19,03,34,3.10
2012,11,19,03,35,0.00
2012,11,19,03,36,6.20
2012,11,19,03,37,9.50
2012,11,19,03,38,7.40
2012,11,19,03,39,6.00
2012,11,19,03,40,14.60
2012,11,19,03,41,12.90
2012,11,19,03,42,12.20
2012,11,19,03,43,16.60
2012,11,19,03,44,20.20
2012,11,19,03,45,17.30
2012,11,19,03,46,15.00
2012,11,19,03,47,9.20
2012,11,19,03,48,3.90
2012,11,19,03,49,9.20
2012,11,19,03,50,17.10
2012,11,19,03,51,14.30
2012,11,19,03,52,13.30
2012,11,19,03,53,10.60
2012,11,19,03,54,14.30
2012,11,19,03,55,15.30
2012,11,19,03,56,11.50
2012,11,19,03,57,10.60
2012,11,19,03,58,8.50
2012,11,19,03,59,11.60
2012,11,19,04,00,12.00
2012,11,19,04,01,10.90
2012,11,19,04,02,7.60
2012,11,19,04,03,10.30
2012,11,19,04,04,11.20
2012,11,19,04,05,10.20
2012,11,19,04,06,11.20
2012,11,19,04,07,10.90
2012,11,19,04,08,14.50
2012,11,19,04,09,8.20
2012,11,19,04,10,6.40
2012,11,19,04,11,6.90
2012,11,19,04,12,8.40
2012,11,19,04,13,11.90
2012,11,19,04,14,11.10
2012,11,19,04,15,8.10
2012,11,19,04,16,11.70
2012,11,19,04,17,15.50
2012,11,19,04,18,16.30
2012,11,19,04,19,13.60
2012,11,19,04,20,11.10
2012,11,19,04,21,7.80
2012,11,19,04,22,5.20
2012,11,19,04,23,5.30
2012,11,19,04,24,7.40
2012,11,19,04,25,9.30
2012,11,19,04,26,10.30
2012,11,19,04,27,13.50
2012,11,19,04,28,7.80
2012,11,19,04,29,16.20
2012,11,19,04,30,9.80
2012,11,19,04,31,8.20
2012,11,19,04,32,13.30
2012,11,19,04,33,13.40
2012,11,19,04,34,13.00
2012,11,19,04,35,8.80
2012,11,19,04,36,10.60
2012,11,19,04,37,13.50
2012,11,19,04,38,10.80
2012,11,19,04,39,6.80
2012,11,19,04,40,12.60
2012,11,19,04,41,11.80
2012,11,19,04,42,13.10
2012,11,19,04,43,11.30
2012,11,19,04,44,11.50
2012,11,19,04,45,7.60
2012,11,19,04,46,10.30
2012,11,19,04,47,9.50
2012,11,19,04,48,15.90
2012,11,19,04,49,13.90
2012,11,19,04,50,11.50
2012,11,19,04,51,7.40
2012,11,19,04,52,14.20
2012,11,19,04,53,12.70
2012,11,19,04,54,8.10
2012,11,19,04,55,11.70
2012,11,19,04,56,12.20
2012,11,19,04,57,11.10
2012,11,19,04,58,9.60
2012,11,19,04,59,14.20
2012,11,19,05,00,10.50
2012,11,19,05,01,11.20
2012,11,19,05,02,9.00
2012,11,19,05,03,7.90
2012,11,19,05,04,14.20
2012,11,19,05,05,11.10
2012,11,19,05,06,9.20
2012,11,19,05,07,7.90
2012,11,19,05,08,8.80
2012,11,19,05,09,7.90
2012,11,19,05,10,8.60
2012,11,19,05,11,6.30
2012,11,19,05,12,10.90
2012,11,19,05,13,8.90
2012,11,19,05,14,7.50
2012,11,19,05,15,10.50
2012,11,19,05,16,7.20
2012,11,19,05,17,7.20
2012,11,19,05,18,9.20
2012,11,19,05,19,8.90
2012,11,19,05,20,7.40
2012,11,19,05,21,6.10
2012,11,19,05,22,4.00
2012,11,19,05,23,8.20
2012,11,19,05,24,8.70
2012,11,19,05,25,7.90
2012,11,19,05,26,4.70
2012,11,19,05,27,2.60
2012,11,19,05,28,7.00
2012,11,19,05,29,8.00
2012,11,19,05,30,8.60
2012,11,19,05,31,7.90
2012,11,19,05,32,5.70
2012,11,19,05,33,1.50
2012,11,19,05,34,0.00
2012,11,19,05,35,1.50
2012,11,19,05,36,3.50
2012,11,19,05,37,3.30
2012,11,19,05,38,4.70
2012,11,19,05,39,5.90
2012,11,19,05,40,5.50
2012,11,19,05,41,9.10
2012,11,19,05,42,8.00
2012,11,19,05,43,9.30
2012,11,19,05,44,6.90
2012,11,19,05,45,6.20
2012,11,19,05,46,5.40
2012,11,19,05,47,7.10
2012,11,19,05,48,7.90
2012,11,19,05,49,3.80
2012,11,19,05,50,3.50
2012,11,19,05,51,4.70
2012,11,19,05,52,4.50
2012,11,19,05,53,4.30
2012,11,19,05,54,4.30
2012,11,19,05,55,3.10
2012,11,19,05,56,0.90
2012,11,19,05,57,3.70
2012,11,19,05,58,4.00
2012,11,19,05,59,4.70
2012,11,19,06,00,0.40
2012,11,19,06,01,3.30
2012,11,19,06,02,4.10
2012,11,19,06,03,4.30
2012,11,19,06,04,4.90
2012,11,19,06,05,10.40
2012,11,19,06,06,7.00
2012,11,19,06,07,7.70
2012,11,19,06,08,6.90
2012,11,19,06,09,8.60
2012,11,19,06,10,10.80
2012,11,19,06,11,7.00
2012,11,19,06,12,7.30
2012,11,19,06,13,6.10
2012,11,19,06,14,10.00
2012,11,19,06,15,8.50
2012,11,19,06,16,7.40
2012,11,19,06,17,4.50
2012,11,19,06,18,5.40
2012,11,19,06,19,4.70
2012,11,19,06,20,8.50
2012,11,19,06,21,7.70
2012,11,19,06,22,9.20
2012,11,19,06,23,9.80
2012,11,19,06,24,7.70
2012,11,19,06,25,3.10
2012,11,19,06,26,3.20
2012,11,19,06,27,1.60
2012,11,19,06,28,4.40
2012,11,19,06,29,5.20
2012,11,19,06,30,4.50
2012,11,19,06,31,5.60
2012,11,19,06,32,4.40
2012,11,19,06,33,3.50
2012,11,19,06,34,2.80
2012,11,19,06,35,2.90
2012,11,19,06,36,8.00
2012,11,19,06,37,7.80
2012,11,19,06,38,6.70
2012,11,19,06,39,7.20
2012,11,19,06,40,6.70
2012,11,19,06,41,4.80
2012,11,19,06,42,3.30
2012,11,19,06,43,2.80
2012,11,19,06,44,2.40
2012,11,19,06,45,1.50
2012,11,19,06,46,1.40
2012,11,19,06,47,3.00
2012,11,19,06,48,2.70
2012,11,19,06,49,3.00
2012,11,19,06,50,3.00
2012,11,19,06,51,3.90
2012,11,19,06,52,2.50
2012,11,19,06,53,3.20
2012,11,19,06,54,7.40
2012,11,19,06,55,4.50
2012,11,19,06,56,2.60
2012,11,19,06,57,2.50
2012,11,19,06,58,4.40
2012,11,19,06,59,4.30
2012,11,19,07,00,4.10
2012,11,19,07,01,5.00
2012,11,19,07,02,0.70
2012,11,19,07,03,0.00
2012,11,19,07,04,3.10
2012,11,19,07,05,0.40
2012,11,19,07,06,0.10
2012,11,19,07,07,0.00
2012,11,19,07,08,0.00
2012,11,19,07,09,0.00
2012,11,19,07,10,0.00
2012,11,19,07,11,0.00
2012,11,19,07,12,0.00
2012,11,19,07,13,1.10
2012,11,19,07,14,4.60
2012,11,19,07,15,8.50
2012,11,19,07,16,4.70
2012,11,19,07,17,2.90
2012,11,19,07,18,6.20
2012,11,19,07,19,8.60
2012,11,19,07,20,6.90
2012,11,19,07,21,4.00
2012,11,19,07,22,3.10
2012,11,19,07,23,3.70
2012,11,19,07,24,4.30
2012,11,19,07,25,3.30
2012,11,19,07,26,4.10
2012,11,19,07,27,0.30
2012,11,19,07,28,8.00
2012,11,19,07,29,6.30
2012,11,19,07,30,4.20
2012,11,19,07,31,7.30
2012,11,19,07,32,5.60
2012,11,19,07,33,5.00
2012,11,19,07,34,3.30
2012,11,19,07,35,4.90
2012,11,19,07,36,2.10
2012,11,19,07,37,0.00
2012,11,19,07,38,0.10
2012,11,19,07,39,2.10
2012,11,19,07,40,3.20
2012,11,19,07,41,3.90
2012,11,19,07,42,6.50
2012,11,19,07,43,5.60
2012,11,19,07,44,3.20
2012,11,19,07,45,9.30
2012,11,19,07,46,7.70
2012,11,19,07,47,3.50
2012,11,19,07,48,4.50
2012,11,19,07,49,12.80
2012,11,19,07,50,9.60
2012,11,19,07,51,10.50
2012,11,19,07,52,14.70
2012,11,19,07,53,16.90
2012,11,19,07,54,10.30
2012,11,19,07,55,7.40
2012,11,19,07,56,8.80
2012,11,19,07,57,6.90
2012,11,19,07,58,7.60
2012,11,19,07,59,8.50
2012,11,19,08,00,10.50
2012,11,19,08,01,8.90
2012,11,19,08,02,6.70
2012,11,19,08,03,9.70
2012,11,19,08,04,11.70
2012,11,19,08,05,7.90
2012,11,19,08,06,6.80
2012,11,19,08,07,16.10
2012,11,19,08,08,13.10
2012,11,19,08,09,6.10
2012,11,19,08,10,10.80
2012,11,19,08,11,6.90
2012,11,19,08,12,4.50
2012,11,19,08,13,15.90
2012,11,19,08,14,12.50
2012,11,19,08,15,9.70
2012,11,19,08,16,7.00
2012,11,19,08,17,13.20
2012,11,19,08,18,11.80
2012,11,19,08,19,11.80
2012,11,19,08,20,15.80
2012,11,19,08,21,11.40
2012,11,19,08,22,8.50
2012,11,19,08,23,13.20
2012,11,19,08,24,9.20
2012,11,19,08,25,19.60
2012,11,19,08,26,19.70
2012,11,19,08,27,15.70
2012,11,19,08,28,20.30
2012,11,19,08,29,22.40
2012,11,19,08,30,11.70
2012,11,19,08,31,19.40
2012,11,19,08,32,21.90
2012,11,19,08,33,15.40
2012,11,19,08,34,18.30
2012,11,19,08,35,14.20
2012,11,19,08,36,19.60
2012,11,19,08,37,14.60
2012,11,19,08,38,17.50
2012,11,19,08,39,21.20
2012,11,19,08,40,20.00
2012,11,19,08,41,21.20
2012,11,19,08,42,13.60
2012,11,19,08,43,20.20
2012,11,19,08,44,14.90
2012,11,19,08,45,24.00
2012,11,19,08,46,19.30
2012,11,19,08,47,17.80
2012,11,19,08,48,20.40
2012,11,19,08,49,18.30
2012,11,19,08,50,22.90
2012,11,19,08,51,16.80
2012,11,19,08,52,24.40
2012,11,19,08,53,12.90
2012,11,19,08,54,19.00
2012,11,19,08,55,17.50
2012,11,19,08,56,21.70
2012,11,19,08,57,16.30
2012,11,19,08,58,19.90
2012,11,19,08,59,14.60
2012,11,19,09,00,20.00
2012,11,19,09,01,18.80
2012,11,19,09,02,19.40
2012,11,19,09,03,18.50
2012,11,19,09,04,18.70
2012,11,19,09,05,18.60
2012,11,19,09,06,14.20
2012,11,19,09,07,19.50
2012,11,19,09,08,15.50
2012,11,19,09,09,17.70
2012,11,19,09,10,20.50
2012,11,19,09,11,20.50
2012,11,19,09,12,17.90
2012,11,19,09,13,24.10
2012,11,19,09,14,17.90
2012,11,19,09,15,10.20
2012,11,19,09,16,14.20
2012,11,19,09,17,12.40
2012,11,19,09,18,17.40
2012,11,19,09,19,18.20
2012,11,19,09,20,14.70
2012,11,19,09,21,13.70
2012,11,19,09,22,16.60
2012,11,19,09,23,19.50
2012,11,19,09,24,15.20
2012,11,19,09,25,12.20
2012,11,19,09,26,12.90
2012,11,19,09,27,13.80
2012,11,19,09,28,11.20
2012,11,19,09,29,8.90
2012,11,19,09,30,8.50
2012,11,19,09,31,14.70
2012,11,19,09,32,13.10
2012,11,19,09,33,17.40
2012,11,19,09,34,10.80
2012,11,19,09,35,8.70
2012,11,19,09,36,13.30
2012,11,19,09,37,13.90
2012,11,19,09,38,8.50
2012,11,19,09,39,7.90
2012,11,19,09,40,8.50
2012,11,19,09,41,7.00
2012,11,19,09,42,5.90
2012,11,19,09,43,6.40
2012,11,19,09,44,6.40
2012,11,19,09,45,8.60
2012,11,19,09,46,18.10
2012,11,19,09,47,7.20
2012,11,19,09,48,9.60
2012,11,19,09,49,7.60
2012,11,19,09,50,8.80
2012,11,19,09,51,11.50
2012,11,19,09,52,11.70
2012,11,19,09,53,11.60
2012,11,19,09,54,13.90
2012,11,19,09,55,11.50
2012,11,19,09,56,9.00
2012,11,19,09,57,9.40
2012,11,19,09,58,8.60
2012,11,19,09,59,8.90
2012,11,19,10,00,8.40
2012,11,19,10,01,12.30
2012,11,19,10,02,9.70
2012,11,19,10,03,10.60
2012,11,19,10,04,7.00
2012,11,19,10,05,10.90
2012,11,19,10,06,8.90
2012,11,19,10,07,8.40
2012,11,19,10,08,10.90
2012,11,19,10,09,7.50
2012,11,19,10,10,8.30
2012,11,19,10,11,8.50
2012,11,19,10,12,5.00
2012,11,19,10,13,9.80
2012,11,19,10,14,9.40
2012,11,19,10,15,11.20
2012,11,19,10,16,10.10
2012,11,19,10,17,10.00
2012,11,19,10,18,8.40
2012,11,19,10,19,7.50
2012,11,19,10,20,14.10
2012,11,19,10,21,6.30
2012,11,19,10,22,6.40
2012,11,19,10,23,9.40
2012,11,19,10,24,15.40
2012,11,19,10,25,7.90
2012,11,19,10,26,5.20
2012,11,19,10,27,11.00
2012,11,19,10,28,7.20
2012,11,19,10,29,2.20
2012,11,19,10,30,5.70
2012,11,19,10,31,6.20
2012,11,19,10,32,5.90
2012,11,19,10,33,6.80
2012,11,19,10,34,7.30
2012,11,19,10,35,7.10
2012,11,19,10,36,4.00
2012,11,19,10,37,6.50
2012,11,19,10,38,6.30
2012,11,19,10,39,6.00
2012,11,19,10,40,6.30
2012,11,19,10,41,6.20
2012,11,19,10,42,7.00
2012,11,19,10,43,3.50
2012,11,19,10,44,3.70
2012,11,19,10,45,4.00
2012,11,19,10,46,4.60
2012,11,19,10,47,3.20
2012,11,19,10,48,3.80
2012,11,19,10,49,6.00
2012,11,19,10,50,6.90
2012,11,19,10,51,4.90
2012,11,19,10,52,4.00
2012,11,19,10,53,4.60
2012,11,19,10,54,4.90
2012,11,19,10,55,3.50
2012,11,19,10,56,2.80
2012,11,19,10,57,5.80
2012,11,19,10,58,5.90
2012,11,19,10,59,2.70
2012,11,19,11,00,4.50
2012,11,19,11,01,4.40
2012,11,19,11,02,4.10
2012,11,19,11,03,5.10
2012,11,19,11,04,5.40
2012,11,19,11,05,3.80
2012,11,19,11,06,3.50
2012,11,19,11,07,7.50
2012,11,19,11,08,5.60
2012,11,19,11,09,5.20
2012,11,19,11,10,3.40
2012,11,19,11,11,5.80
2012,11,19,11,12,6.40
2012,11,19,11,13,4.80
2012,11,19,11,14,3.50
2012,11,19,11,15,3.40
2012,11,19,11,16,6.70
2012,11,19,11,17,6.50
2012,11,19,11,18,3.80
2012,11,19,11,19,2.60
2012,11,19,11,20,5.40
2012,11,19,11,21,5.20
2012,11,19,11,22,4.60
2012,11,19,11,23,4.50
2012,11,19,11,24,4.50
2012,11,19,11,25,6.40
2012,11,19,11,26,6.40
2012,11,19,11,27,5.00
2012,11,19,11,28,6.80
2012,11,19,11,29,7.30
2012,11,19,11,30,4.80
2012,11,19,11,31,4.50
2012,11,19,11,32,4.70
2012,11,19,11,33,3.30
2012,11,19,11,34,4.30
2012,11,19,11,35,5.00
2012,11,19,11,36,2.70
2012,11,19,11,37,6.80
2012,11,19,11,38,7.00
2012,11,19,11,39,4.40
2012,11,19,11,40,5.60
2012,11,19,11,41,5.00
2012,11,19,11,42,1.30
2012,11,19,11,43,0.00
2012,11,19,11,44,0.10
2012,11,19,11,45,1.40
2012,11,19,11,46,1.70
2012,11,19,11,47,0.10
2012,11,19,11,48,0.00
2012,11,19,11,49,0.00
2012,11,19,11,50,0.00
2012,11,19,11,51,0.00
2012,11,19,11,52,0.00
2012,11,19,11,53,0.10
2012,11,19,11,54,0.00
2012,11,19,11,55,3.70
2012,11,19,11,56,5.40
2012,11,19,11,57,3.50
2012,11,19,11,58,2.50
2012,11,19,11,59,3.50
2012,11,19,12,00,0.80
2012,11,19,12,01,3.10
2012,11,19,12,02,4.30
2012,11,19,12,03,2.50
2012,11,19,12,04,0.40
2012,11,19,12,05,0.10
2012,11,19,12,06,1.70
2012,11,19,12,07,0.90
2012,11,19,12,08,0.70
2012,11,19,12,09,3.50
2012,11,19,12,10,4.10
2012,11,19,12,11,3.50
2012,11,19,12,12,1.50
2012,11,19,12,13,2.20
2012,11,19,12,14,0.30
2012,11,19,12,15,1.20
2012,11,19,12,16,2.40
2012,11,19,12,17,3.90
2012,11,19,12,18,3.10
2012,11,19,12,19,3.90
2012,11,19,12,20,4.90
2012,11,19,12,21,1.90
2012,11,19,12,22,0.00
2012,11,19,12,23,1.10
2012,11,19,12,24,3.50
2012,11,19,12,25,3.50
2012,11,19,12,26,3.00
2012,11,19,12,27,1.60
2012,11,19,12,28,0.80
2012,11,19,12,29,0.00
2012,11,19,12,30,4.20
2012,11,19,12,31,3.80
2012,11,19,12,32,1.40
2012,11,19,12,33,3.20
2012,11,19,12,34,3.70
2012,11,19,12,35,6.20
2012,11,19,12,36,6.10
2012,11,19,12,37,5.10
2012,11,19,12,38,6.00
2012,11,19,12,39,6.30
2012,11,19,12,40,6.80
2012,11,19,12,41,4.70
2012,11,19,12,42,5.80
2012,11,19,12,43,3.90
2012,11,19,12,44,0.90
2012,11,19,12,45,2.20
2012,11,19,12,46,5.10
2012,11,19,12,47,5.60
2012,11,19,12,48,8.90
2012,11,19,12,49,8.60
2012,11,19,12,50,6.90
2012,11,19,12,51,8.10
2012,11,19,12,52,7.80
2012,11,19,12,53,8.40
2012,11,19,12,54,6.80
2012,11,19,12,55,8.60
2012,11,19,12,56,9.30
2012,11,19,12,57,5.80
2012,11,19,12,58,2.50
2012,11,19,12,59,0.60
2012,11,19,13,00,0.00
2012,11,19,13,01,0.60
2012,11,19,13,02,1.00
2012,11,19,13,03,3.40
2012,11,19,13,04,3.30
2012,11,19,13,05,1.70
2012,11,19,13,06,6.30
2012,11,19,13,07,1.10
2012,11,19,13,08,0.00
2012,11,19,13,09,2.00
2012,11,19,13,10,6.00
2012,11,19,13,11,3.30
2012,11,19,13,12,0.80
2012,11,19,13,13,0.00
2012,11,19,13,14,1.70
2012,11,19,13,15,2.30
2012,11,19,13,16,2.10
2012,11,19,13,17,0.00
2012,11,19,13,18,0.00
2012,11,19,13,19,0.00
2012,11,19,13,20,0.00
2012,11,19,13,21,0.00
2012,11,19,13,22,0.00
2012,11,19,13,23,0.00
2012,11,19,13,24,0.00
2012,11,19,13,25,0.10
2012,11,19,13,26,0.00
2012,11,19,13,27,0.00
2012,11,19,13,28,0.00
2012,11,19,13,29,0.00
2012,11,19,13,30,0.00
2012,11,19,13,31,0.10
2012,11,19,13,32,1.40
2012,11,19,13,33,3.50
2012,11,19,13,34,0.90
2012,11,19,13,35,0.00
2012,11,19,13,36,0.00
2012,11,19,13,37,3.10
2012,11,19,13,38,3.90
2012,11,19,13,39,2.10
2012,11,19,13,40,2.50
2012,11,19,13,41,2.00
2012,11,19,13,42,1.10
2012,11,19,13,43,2.90
2012,11,19,13,44,5.10
2012,11,19,13,45,1.00
2012,11,19,13,46,0.20
2012,11,19,13,47,2.60
2012,11,19,13,48,2.70
2012,11,19,13,49,4.10
2012,11,19,13,50,2.20
2012,11,19,13,51,1.90
2012,11,19,13,52,3.40
2012,11,19,13,53,3.10
2012,11,19,13,54,2.80
2012,11,19,13,55,3.10
2012,11,19,13,56,3.40
2012,11,19,13,57,1.80
2012,11,19,13,58,2.50
2012,11,19,13,59,3.00
2012,11,19,14,00,2.30
2012,11,19,14,01,3.10
2012,11,19,14,02,2.80
2012,11,19,14,03,1.30
2012,11,19,14,04,0.00
2012,11,19,14,05,0.00
2012,11,19,14,06,0.10
2012,11,19,14,07,0.00
2012,11,19,14,08,0.00
2012,11,19,14,09,0.00
2012,11,19,14,10,0.00
2012,11,19,14,11,0.60
2012,11,19,14,12,2.60
2012,11,19,14,13,1.10
2012,11,19,14,14,0.00
2012,11,19,14,15,0.00
2012,11,19,14,16,0.00
2012,11,19,14,17,0.00
2012,11,19,14,18,0.00
2012,11,19,14,19,0.00
2012,11,19,14,20,0.00
2012,11,19,14,21,0.00
2012,11,19,14,22,0.00
2012,11,19,14,23,0.00
2012,11,19,14,24,0.90
2012,11,19,14,25,4.20
2012,11,19,14,26,4.90
2012,11,19,14,27,3.90
2012,11,19,14,28,2.50
2012,11,19,14,29,0.20
2012,11,19,14,30,0.00
2012,11,19,14,31,2.30
2012,11,19,14,32,0.20
2012,11,19,14,33,0.00
2012,11,19,14,34,0.00
2012,11,19,14,35,0.00
2012,11,19,14,36,0.00
2012,11,19,14,37,0.10
2012,11,19,14,38,3.30
2012,11,19,14,39,3.30
2012,11,19,14,40,3.70
2012,11,19,14,41,2.70
2012,11,19,14,42,1.50
2012,11,19,14,43,2.90
2012,11,19,14,44,3.50
2012,11,19,14,45,3.70
2012,11,19,14,46,3.60
2012,11,19,14,47,3.60
2012,11,19,14,48,3.30
2012,11,19,14,49,4.60
2012,11,19,14,50,3.40
2012,11,19,14,51,3.60
2012,11,19,14,52,1.90
2012,11,19,14,53,0.00
2012,11,19,14,54,3.60
2012,11,19,14,55,5.00
2012,11,19,14,56,3.00
2012,11,19,14,57,1.90
2012,11,19,14,58,3.50
2012,11,19,14,59,3.50
2012,11,19,15,00,2.70
2012,11,19,15,01,0.00
2012,11,19,15,02,3.50
2012,11,19,15,03,2.60
2012,11,19,15,04,1.90
2012,11,19,15,05,2.10
2012,11,19,15,06,0.90
2012,11,19,15,07,0.00
2012,11,19,15,08,0.00
2012,11,19,15,09,0.00
2012,11,19,15,10,0.00
2012,11,19,15,11,0.00
2012,11,19,15,12,0.00
2012,11,19,15,13,0.00
2012,11,19,15,14,0.00
2012,11,19,15,15,0.00
2012,11,19,15,16,0.00
2012,11,19,15,17,0.00
2012,11,19,15,18,0.00
2012,11,19,15,19,0.00
2012,11,19,15,20,0.00
2012,11,19,15,21,0.00
2012,11,19,15,22,0.00
2012,11,19,15,23,0.00
2012,11,19,15,24,0.00
2012,11,19,15,25,0.00
2012,11,19,15,26,0.00
2012,11,19,15,27,0.00
2012,11,19,15,28,0.00
2012,11,19,15,29,0.00
2012,11,19,15,30,0.00
2012,11,19,15,31,0.00
2012,11,19,15,32,0.00
2012,11,19,15,33,0.00
2012,11,19,15,34,0.00
2012,11,19,15,35,2.70
2012,11,19,15,36,2.00
2012,11,19,15,37,1.70
2012,11,19,15,38,0.20
2012,11,19,15,39,0.00
2012,11,19,15,40,0.00
2012,11,19,15,41,0.00
2012,11,19,15,42,1.70
2012,11,19,15,43,2.60
2012,11,19,15,44,1.70
2012,11,19,15,45,3.20
2012,11,19,15,46,2.40
2012,11,19,15,47,0.80
2012,11,19,15,48,0.00
2012,11,19,15,49,0.00
2012,11,19,15,50,0.00
2012,11,19,15,51,0.00
2012,11,19,15,52,0.00
2012,11,19,15,53,0.00
2012,11,19,15,54,0.00
2012,11,19,15,55,0.00
2012,11,19,15,56,0.00
2012,11,19,15,57,0.00
2012,11,19,15,58,0.00
2012,11,19,15,59,0.00
2012,11,19,16,00,0.00
2012,11,19,16,01,0.00
2012,11,19,16,02,0.00
2012,11,19,16,03,0.00
2012,11,19,16,04,0.00
2012,11,19,16,05,0.00
2012,11,19,16,06,0.00
2012,11,19,16,07,0.00
2012,11,19,16,08,0.00
2012,11,19,16,09,0.00
2012,11,19,16,10,0.00
2012,11,19,16,11,0.00
2012,11,19,16,12,0.00
2012,11,19,16,13,0.00
2012,11,19,16,14,0.00
2012,11,19,16,15,0.00
2012,11,19,16,16,0.00
2012,11,19,16,17,0.00
2012,11,19,16,18,0.00
2012,11,19,16,19,0.10
2012,11,19,16,20,0.10
2012,11,19,16,21,2.60
2012,11,19,16,22,4.20
2012,11,19,16,23,4.50
2012,11,19,16,24,2.90
2012,11,19,16,25,1.50
2012,11,19,16,26,0.00
2012,11,19,16,27,0.00
2012,11,19,16,28,1.30
2012,11,19,16,29,4.70
2012,11,19,16,30,6.10
2012,11,19,16,31,7.60
2012,11,19,16,32,8.70
2012,11,19,16,33,8.20
2012,11,19,16,34,8.30
2012,11,19,16,35,7.10
2012,11,19,16,36,7.70
2012,11,19,16,37,7.50
2012,11,19,16,38,8.70
2012,11,19,16,39,8.50
2012,11,19,16,40,11.40
2012,11,19,16,41,10.10
2012,11,19,16,42,9.90
2012,11,19,16,43,6.80
2012,11,19,16,44,5.80
2012,11,19,16,45,3.30
2012,11,19,16,46,3.10
2012,11,19,16,47,4.30
2012,11,19,16,48,5.90
2012,11,19,16,49,7.90
2012,11,19,16,50,5.80
2012,11,19,16,51,4.70
2012,11,19,16,52,6.10
2012,11,19,16,53,6.70
2012,11,19,16,54,7.90
2012,11,19,16,55,4.60
2012,11,19,16,56,3.90
2012,11,19,16,57,3.40
2012,11,19,16,58,6.10
2012,11,19,16,59,5.10
2012,11,19,17,00,4.20
2012,11,19,17,01,5.20
2012,11,19,17,02,6.30
2012,11,19,17,03,7.80
2012,11,19,17,04,7.10
2012,11,19,17,05,4.60
2012,11,19,17,06,3.30
2012,11,19,17,07,2.60
2012,11,19,17,08,1.10
2012,11,19,17,09,0.00
2012,11,19,17,10,0.00
2012,11,19,17,11,2.90
2012,11,19,17,12,3.70
2012,11,19,17,13,2.90
2012,11,19,17,14,5.60
2012,11,19,17,15,7.40
2012,11,19,17,16,6.80
2012,11,19,17,17,7.70
2012,11,19,17,18,8.60
2012,11,19,17,19,9.20
2012,11,19,17,20,7.10
2012,11,19,17,21,5.30
2012,11,19,17,22,4.40
2012,11,19,17,23,3.50
2012,11,19,17,24,5.60
2012,11,19,17,25,5.10
2012,11,19,17,26,7.20
2012,11,19,17,27,6.80
2012,11,19,17,28,6.80
2012,11,19,17,29,6.60
2012,11,19,17,30,3.10
2012,11,19,17,31,4.90
2012,11,19,17,32,6.30
2012,11,19,17,33,8.10
2012,11,19,17,34,6.80
2012,11,19,17,35,5.30
2012,11,19,17,36,3.80
2012,11,19,17,37,4.20
2012,11,19,17,38,3.30
2012,11,19,17,39,4.70
2012,11,19,17,40,3.60
2012,11,19,17,41,4.30
2012,11,19,17,42,3.30
2012,11,19,17,43,3.40
2012,11,19,17,44,3.40
2012,11,19,17,45,5.20
2012,11,19,17,46,3.80
2012,11,19,17,47,5.70
2012,11,19,17,48,5.10
2012,11,19,17,49,5.10
2012,11,19,17,50,4.70
2012,11,19,17,51,5.40
2012,11,19,17,52,7.10
2012,11,19,17,53,6.10
2012,11,19,17,54,7.30
2012,11,19,17,55,7.80
2012,11,19,17,56,8.00